Regional Weather Roundup
Issued by NWS

Home | Current Version | Previous Version | Graphics & Text | Print | Product List | Glossary On
Versions: 1 2 3 4 5 6 7 8 9 10 11 12 13 14 15 16 17 18 19 20 21 22 23 24 25 26 27 28 29 30 31 32 33 34 35 36 37 38 39 40 41 42 43 44 45 46 47 48 49 50
941
ASUS44 KLIX 220610
RWRLA
LOUISIANA WEATHER ROUNDUP
NATIONAL WEATHER SERVICE NEW ORLEANS LA
100 AM CDT FRI AUG 22 2014

NOTE: "FAIR" INDICATES FEW OR NO CLOUDS BELOW 12,000 FEET WITH NO
      SIGNIFICANT WEATHER AND/OR OBSTRUCTIONS TO VISIBILITY.
      SKY/WX - SKY CONDITION AND SIGNIFICANT WEATHER.
      TMP - AIR TEMPERATURE.    DP   - DEWPOINT TEMPERATURE.
      RH  - RELATIVE HUMIDITY.  PRES - PRESSURE.
      HX  - HEAT INDEX.         WCI  - WIND CHILL INDEX.

*  THESE STATIONS ARE NOT NWS OR FAA STATIONS AND ARE NOT UNDER
   NWS QUALITY CONTROL.

LAZ040-048-061>063-065-066-069-220700-
SOUTHEAST LOUISIANA

CITY           SKY/WX    TMP DP  RH WIND       PRES   REMARKS
N.O. AUDUBON     N/A     78  77  96 MISG        N/A
6HR MIN TEMP:  78; 6HR MAX TEMP:  82;

N.O. INTL ARPT FAIR      78  74  87 SW5       30.08F
6HR MIN TEMP:  78; 6HR MAX TEMP:  80;

N.O. LAKEFRONT FAIR      80  74  81 SW5       30.09F
6HR MIN TEMP:  79; 6HR MAX TEMP:  83;

N.O. DOWNTOWN* FAIR      81  70  69 CALM      30.09F
6HR MIN TEMP:  81; 6HR MAX TEMP:  84;

SLIDELL        FAIR      78  72  81 CALM      30.07F
6HR MIN TEMP:  76; 6HR MAX TEMP:  85;

BATON ROUGE    FAIR      75  73  93 NE3       30.09F FOG
6HR MIN TEMP:  75; 6HR MAX TEMP:  78;

BOOTHVILLE     FAIR      82  77  84 CALM      30.10F
6HR MIN TEMP:  81; 6HR MAX TEMP:  87;

BELLE CHASSE   FAIR      75  72  90 SW3       30.08F
6HR MIN TEMP:  75; 6HR MAX TEMP:  81;

BOGALUSA*      FAIR      78  73  83 CALM      30.09F
6HR MIN TEMP:  77; 6HR MAX TEMP:  85;

GALLIANO*      NOT AVBL
NEW ROADS*     FAIR      74  73  97 CALM      30.10S FOG
6HR MIN TEMP:  74; 6HR MAX TEMP:  78;

GONZALES*      FAIR      75  75 100 CALM      30.08F
6HR MIN TEMP:  75; 6HR MAX TEMP:  78;

HAMMOND*       FAIR      75  72  88 CALM      30.10F
HOUMA*         FAIR      74  72  91 CALM      30.09F
6HR MIN TEMP:  74; 6HR MAX TEMP:  81;

PORT FOURCHON* CLEAR     84  77  79 CALM      30.11F

$$

LAZ041-044-053-054-220700-
SOUTHWEST LOUISIANA

CITY           SKY/WX    TMP DP  RH WIND       PRES   REMARKS
LAKE CHARLES   FAIR      79  76  90 S3        30.07S
6HR MIN TEMP:  79; 6HR MAX TEMP:  86;

LAFAYETTE      FAIR      77  74  90 CALM      30.09F
6HR MIN TEMP:  77; 6HR MAX TEMP:  79;

PATTERSON      FAIR      75  75 100 CALM      30.12F
6HR MIN TEMP:  75; 6HR MAX TEMP:  79;

SALT POINT       N/A     81  77  88 E5        30.08F
6HR MIN TEMP:  80; 6HR MAX TEMP:  83;

NEW IBERIA     FAIR      76  73  91 CALM      30.09F
6HR MIN TEMP:  75; 6HR MAX TEMP:  80;

CHENAULT AIRPK FAIR      77  75  93 SE3       30.08S
6HR MIN TEMP:  77; 6HR MAX TEMP:  87;


$$

LAZ027-028-220700-
CENTRAL LOUISIANA

CITY           SKY/WX    TMP DP  RH WIND       PRES   REMARKS
FORT POLK      FAIR      74  73  97 CALM      30.08F
6HR MIN TEMP:  73; 6HR MAX TEMP:  83;

ALEXANDRIA INT FAIR      75  72  90 SE6       30.07F
6HR MIN TEMP:  74; 6HR MAX TEMP:  76;

ALEXANDRIA     FAIR      74  71  91 SE3       30.09F
6HR MIN TEMP:  74; 6HR MAX TEMP:  76; 6HR PCP:  0.01;


$$

LAZ001-002-220700-
NORTHWEST LOUISIANA

CITY           SKY/WX    TMP DP  RH WIND       PRES   REMARKS
SHREVEPORT     FAIR      77  74  90 SE6       30.04S
6HR MIN TEMP:  77; 6HR MAX TEMP:  93;

BARKSDALE AFB  FAIR      76  74  95 S8        30.05S
6HR MIN TEMP:  76; 6HR MAX TEMP:  94;

DTN SHREVEPORT FAIR      77  74  90 SE3       30.04F
6HR MIN TEMP:  77; 6HR MAX TEMP:  93;


$$

LAZ014-016-220700-
NORTHEAST LOUISIANA

CITY           SKY/WX    TMP DP  RH WIND       PRES   REMARKS
MONROE         FAIR      75  71  87 CALM      30.07F
6HR MIN TEMP:  74; 6HR MAX TEMP:  81;

TALLULAH       FAIR      73  71  93 CALM      30.07F
6HR MIN TEMP:  73; 6HR MAX TEMP:  77; 6HR PCP:  0.02;


$$




USA.gov is the U.S. government's official web portal to all federal, state and local government web resources and services.